Location: Unspecified
(50.0077°N, 36.2988°E)
Time: 04:21:23
(UTC+00:00)

X-37B - Pass Details

Date: 21 September 2020
Orbit: 382 x 392 km, 45.0° (Epoch: 15 October)

Event Time Altitude Azimuth Distance (km) Brightness Sun altitude
Exits shadow 02:09:46 19° 229° (SW) 997 2.1 -12.0°
Maximum altitude 02:10:55 23° 196° (SSW) 865 2.0 -11.8°
Drops below altitude 10° 02:13:30 10° 141° (SE) 1,402 3.7 -11.4°
Sets 02:15:48 0° 127° (SE) 2,255 5.1 -11.0°
